Regional Weather Roundup
Issued by NWS

Home | Current Version | Previous Version | Graphics & Text | Print | Product List | Glossary On
Versions: 1 2 3 4 5 6 7 8 9 10 11 12 13 14 15 16 17 18 19 20 21 22 23 24 25 26 27 28 29 30 31 32 33 34 35 36 37 38 39 40 41 42 43 44 45 46 47 48 49 50
642
ASUS43 KIND 280109
RWRIN

WEATHER ROUNDUP FOR INDIANA
NATIONAL WEATHER SERVICE INDIANAPOLIS IN
900 PM EDT WED JUL 27 2016

NOTE: "FAIR" INDICATES FEW OR NO CLOUDS BELOW 12,000 FEET WITH NO
SIGNIFICANT WEATHER AND/OR OBSTRUCTIONS TO VISIBILITY.

* - STATION DOES NOT REPORT WEATHER SUCH AS PRECIPITATION OR FOG.

+ - STATION NOT QUALITY CONTROLLED BY THE NATIONAL WEATHER SERVICE.
    USE DATA WITH CAUTION...ESPECIALLY DEWPOINT AND RELATIVE
    HUMIDITY OBSERVATIONS.

INZ001>003-010>013-019-020-280200-
NORTHWEST INDIANA

CITY           SKY/WX    TMP DP  RH WIND       PRES   REMARKS
GARY /AIRPORT/ PTCLDY    81  66  61 E6        29.92S
KNOX *+        CLEAR     77  63  61 NE6       29.92F
LA PORTE +     CLEAR     78  72  81 CALM      29.94F
MICHIGAN CITY+ CLEAR     75  64  69 CALM      29.93F
MONTICELLO +   CLEAR     79  67  66 CALM      29.93S
RENSSELAER +   CLEAR     75  73  94 CALM      29.93F
VALPARAISO     PTCLDY    78  69  73 E3        29.93F

$$

LMZ046-743>745-280200-
SOUTHERN LAKE MICHIGAN

STATION/POSITION TIME  TEMP    WIND        PRES    WAVE
                       AIR SEA DIR/SP/G            HT
                 (UTC) (F)     (DEG/KT/KT) (MB)    (FT)
BURNS HARBOR     0000   79      80/ 13/ 15 1013.5F
MICHIGAN CITY    0000   79      40/ 10/ 11   N/A
5NW MICH CITY    0100   78 77  100/  4/  6   N/A     1

$$

INZ004-005-014>016-021>024-280200-
NORTH CENTRAL INDIANA

CITY           SKY/WX    TMP DP  RH WIND       PRES   REMARKS
ELKHART        CLEAR     81  72  74 N3        29.94F
GOSHEN         PTCLDY    81  65  58 N10       29.94S
LOGANSPORT +   CLEAR     77  68  73 CALM      29.94F
PERU/GRISSOM   CLEAR     80  68  65 W5        29.93S
ROCHESTER +    CLEAR     82  68  61 W3        29.94F
SOUTH BEND     CLEAR     80  65  59 NE3       29.93F
WARSAW +       PTCLDY    77  66  69 CALM      29.94S

$$

INZ006>009-017-018-025>027-280200-
NORTHEAST INDIANA

CITY           SKY/WX    TMP DP  RH WIND       PRES   REMARKS
ANGOLA *+        N/A     81  64  57 CALM      29.95S
AUBURN +       CLEAR     81  59  47 CALM      29.93F
FORT WAYNE     PTCLDY    78  65  63 W5        29.94S
HUNTINGTON +   PTCLDY    77  67  72 CALM      29.94R

$$

INZ028-029-035-036-043>045-051>053-280200-
WEST CENTRAL INDIANA

CITY           SKY/WX    TMP DP  RH WIND       PRES   REMARKS
CRAWFORDSVL +  CLOUDY    75  72  92 CALM      29.94S
GREENCASTLE +  CLOUDY    77  73  88 CALM      29.94S
LAFAYETTE      CLEAR     78  69  73 CALM      29.93S
TERRE HAUTE    PTCLDY    81  72  74 CALM      29.93R

$$

INZ030>032-037>040-046>048-054>057-064-065-280200-
CENTRAL INDIANA

CITY           SKY/WX    TMP DP  RH WIND       PRES   REMARKS
COLUMBUS       PTCLDY    82  72  69 CALM      29.94R
FISHERS *+     PTCLDY    75  70  83 CALM      29.94
INDIANAPOLIS   CLOUDY    83  64  52 N6        29.94S
-EAGLE CREEK   CLOUDY    82  66  58 CALM      29.93S
KOKOMO *+      PTCLDY    81  66  61 NW5       29.95R
MARION +       HAZE      77  70  79 CALM      29.95S VSB 1
MT COMFORT *+  MOCLDY    77  70  78 CALM      29.94S
SHELBYVILLE    CLOUDY    81  74  79 CALM      29.93S
ZIONSVILLE +   MOCLDY    74  70  85 CALM      29.96R

$$

INZ033-034-041-042-049-050-058-059-280200-
EAST CENTRAL INDIANA

CITY           SKY/WX    TMP DP  RH WIND       PRES   REMARKS
MUNCIE         CLOUDY    81  67  62 N3        29.94S

$$

INZ060-061-067>069-081>083-085>088-280200-
SOUTHWEST INDIANA

CITY           SKY/WX    TMP DP  RH WIND       PRES   REMARKS
EVANSVILLE     TSTM      76  74  93 SE5       29.95R
HUNTINGBURG *+ CLOUDY    79  73  83 W5        29.94R
WASHINGTON +   CLOUDY    79  79  99 MISG      29.92S

$$

INZ062-063-066-070>080-084-089>092-280200-
SOUTH CENTRAL AND SOUTHEAST INDIANA

CITY           SKY/WX    TMP DP  RH WIND       PRES   REMARKS
BLOOMINGTON    CLOUDY    76  71  85 CALM      29.94S
MADISON *+     PTCLDY    79  73  83 CALM      29.95S
NORTH VERNON + CLOUDY    81  81 100 N5        29.93
SEYMOUR +      CLOUDY    82  73  74 CALM      29.91F

$$





USA.gov is the U.S. government's official web portal to all federal, state and local government web resources and services.